www.pogodaiklimat.ru

Погода и климат >> Архив погоды >> Норвегия >> Сауда


ПОГОДА в Сауде

  • Прогноз погоды в Сауде
  • Монитор погоды в Сауде

АРХИВ ПОГОДЫ в Сауде

Время (UTC), дата Ветер
(напр.,м/с)
 
Видим.   Явления Облачность Т
(С)
Тd
(С)
f
(%)
Тe
(С)
Тes
(С)
Комфортность P
(гПа)
Po
(гПа)
Тmin
(С)
Tmax
(С)
R
(мм)
R24
(мм)
S
(см)
13 15.09 н/о н/о +11.9 +6.4 69 1004.6 1004.3 3
14 15.09 н/о н/о +12.0 +6.7 70 1005.2 1004.9 0.9
15 15.09 н/о н/о +11.9 +6.6 70 1005.4 1005.1 2
16 15.09 н/о н/о +11.5 +6.6 72 1006.1 1005.8 2
17 15.09 н/о н/о +10.8 +6.6 75 1007.1 1006.8 3
18 15.09 4000 м дождь 10/10 200 м
[Frnb]
+11.0 +6.4 73 1008.2 1007.9 +8.8 +12.7 23
19 15.09 н/о н/о +11.3 +5.2 66 1009.0 1008.7 0.6
20 15.09 н/о н/о +11.0 +4.7 65 1010.1 1009.8 2
21 15.09 н/о н/о +9.7 +4.3 69 1011.0 1010.7 1
22 15.09 н/о н/о +10.4 +3.5 62 1011.2 1010.9
23 15.09 н/о н/о +9.6 +3.8 67 1011.5 1011.2 0.1
00 16.09 н/о н/о +9.4 +3.6 67 1011.3 1011.0
01 16.09 н/о н/о +9.1 +3.7 69 1011.4 1011.1
02 16.09 н/о н/о +8.3 +4.0 74 1011.3 1011.0
03 16.09 4000 м слаб. морось {дождь} 6/6 1000 м
[Cu Sc]
+7.3 +4.8 84 1011.2 1010.9 0.1
04 16.09 н/о н/о +7.7 +5.4 85 1011.4 1011.1 0.1
05 16.09 н/о н/о +8.2 +4.4 77 1011.4 1011.1 0.4
06 16.09 10 км слаб. дождь {морось} 10/5 1000 м
[Frnb As op]
+7.6 +5.6 87 1011.6 1011.3 +6.9 +11.5 5
07 16.09 н/о н/о +7.6 +5.6 87 1012.0 1011.7 0.1
08 16.09 н/о н/о +8.3 +6.3 87 1012.5 1012.2 0.1
09 16.09 н/о н/о +9.0 +6.1 82 1012.5 1012.2 0.2
10 16.09 н/о н/о +9.9 +6.3 78 1012.3 1012.0
11 16.09 н/о н/о +9.1 +4.7 74 1012.8 1012.5 2
12 16.09 10 км слаб. дождь 10/10 600 м
[Frnb]
+9.3 +6.4 82 1012.5 1012.2 0.6
13 16.09 н/о н/о +9.5 +6.8 83 1012.0 1011.7 2
14 16.09 н/о н/о +9.2 +5.9 80 1011.5 1011.2 0.1
15 16.09 н/о н/о +8.7 +6.3 85 1010.8 1010.5 0.4
16 16.09 н/о н/о +10.0 +6.9 81 1010.1 1009.8
17 16.09 н/о н/о +9.3 +7.3 87 1009.6 1009.3 0.8
18 16.09 10 км слаб. дождь 10/10 600 м
[Frnb]
+8.8 +5.4 79 1009.1 1008.8 +7.5 +10.6 8
19 16.09 н/о н/о +8.1 +6.4 89 1008.8 1008.5 0.5
20 16.09 н/о н/о +8.3 +4.9 79 1008.5 1008.2 0.5
21 16.09 н/о н/о +8.7 +4.3 74 1008.5 1008.2 0.5
22 16.09 н/о н/о +7.8 +4.0 77 1008.8 1008.5 0.4
23 16.09 н/о н/о +7.1 +2.6 73 1008.5 1008.2 0.7
00 17.09 н/о н/о +6.3 +3.5 82 1008.0 1007.7
01 17.09 н/о н/о +5.8 +4.3 90 1007.9 1007.6 2
02 17.09 н/о н/о +5.7 +4.2 90 1007.0 1006.7 0.8
03 17.09 10 км дождь 10/10 600 м
[Frnb]
+5.8 +4.5 91 1006.2 1005.9 0.8
04 17.09 н/о н/о +5.6 +4.3 91 1006.4 1006.1 3
05 17.09 н/о н/о +5.5 +4.0 90 1006.3 1006.0 0.2
06 17.09 10 км слаб. дождь 10/8 1000 м
[Frnb As op]
+5.7 +4.2 90 1007.1 1006.8 +5.4 +9.1 9
07 17.09 н/о н/о +6.5 +3.8 83 1007.4 1007.1 0.2
08 17.09 н/о н/о +7.9 +2.2 67 1008.1 1007.8
09 17.09 н/о н/о +8.2 +2.7 68 1009.0 1008.7
10 17.09 н/о н/о +10.4 +1.8 55 1009.7 1009.4
11 17.09 н/о н/о +11.6 -0.8 42 1010.8 1010.5
12 17.09 >70 км {дождь} 3/3 1500 м
[Cu hum]
+11.5 -1.3 41 1011.6 1011.3
13 17.09 н/о н/о +12.4 -1.5 38 1012.5 1012.2
14 17.09 н/о н/о +12.1 -0.1 43 1013.5 1013.2
15 17.09 н/о н/о +11.7 +1.7 50 1014.5 1014.2
16 17.09 н/о н/о +11.3 +3.4 58 1015.0 1014.7
17 17.09 н/о н/о +11.0 +3.3 59 1015.7 1015.4
18 17.09 >70 км {морось} 5/5 1500 м
[Sc]
+10.2 +3.5 63 1016.2 1015.9 +5.7 +13.2 0.2
19 17.09 н/о н/о +9.9 +3.7 65 1017.1 1016.8
20 17.09 н/о н/о +10.1 +3.6 64 1017.8 1017.5
21 17.09 н/о н/о +8.5 +4.5 76 1018.5 1018.2
22 17.09 н/о н/о +7.7 +4.5 80 1018.7 1018.4 0.1
23 17.09 н/о н/о +8.0 +4.2 77 1019.1 1018.8
00 18.09 н/о н/о +7.1 +4.6 84 1019.2 1018.9
01 18.09 н/о н/о +7.4 +4.7 83 1019.4 1019.1
02 18.09 н/о н/о +7.4 +4.7 83 1019.7 1019.4
03 18.09 20 км 9/9 600 м
[Sc]
+7.4 +5.2 86 1019.9 1019.6
04 18.09 н/о н/о +8.2 +3.9 74 1020.0 1019.7
05 18.09 н/о н/о +6.9 +5.1 88 1020.4 1020.1
06 18.09 30 км 8/3 1500 м
[Sc As op]
+6.9 +5.2 89 1020.8 1020.5 +6.7 +10.5 0.1
07 18.09 н/о н/о +7.0 +5.0 87 1021.1 1020.8
08 18.09 н/о н/о +8.4 +5.3 81 1021.6 1021.3
09 18.09 н/о н/о +9.4 +5.4 76 1021.9 1021.6
10 18.09 н/о н/о +12.6 +3.3 53 1022.0 1021.7
11 18.09 н/о н/о +13.3 +2.8 49 1022.3 1022.0
12 18.09 55 км 5/5 1500 м
[Cu hum]
+13.7 +2.6 47 1022.6 1022.3
13 18.09 н/о н/о +13.1 +1.8 46 1022.8 1022.5
14 18.09 н/о н/о +13.5 +2.1 46 1023.1 1022.8
15 18.09 н/о н/о +11.7 +5.4 65 1023.7 1023.4 0.1
16 18.09 н/о н/о +11.0 +4.5 64 1023.9 1023.6 0.1
17 18.09 н/о н/о +10.2 +4.4 67 1024.0 1023.7
18 18.09 >70 км 1/1 1500 м
[Cu hum]
+7.7 +4.3 79 1024.6 1024.3 +6.9 +14.5 0.2
19 18.09 н/о н/о +6.8 +4.5 85 1025.0 1024.7
20 18.09 н/о н/о +6.2 +3.9 85 1025.5 1025.2
21 18.09 н/о н/о +5.4 +3.3 86 1025.7 1025.4
22 18.09 н/о н/о +5.2 +3.1 86 1026.2 1025.9
23 18.09 н/о н/о +4.7 +2.7 87 1026.7 1026.4
00 19.09 н/о н/о +4.5 +2.5 87 1026.9 1026.6
01 19.09 н/о н/о +3.9 +2.1 88 1027.3 1027.0
02 19.09 н/о н/о +3.2 +1.7 90 1027.4 1027.1
03 19.09 30 км 1/1 1500 м
[Cu hum]
+2.9 +1.6 91 1027.8 1027.5
04 19.09 н/о н/о +2.6 +1.3 91 1027.8 1027.5
05 19.09 н/о н/о +2.8 +1.5 91 1028.0 1027.7
06 19.09 30 км 10/1 1500 м
[Sc As op]
+3.0 +1.7 91 1028.2 1027.9 +2.6 +7.7
07 19.09 н/о н/о +4.1 +2.5 89 1028.4 1028.1
08 19.09 н/о н/о +5.9 +2.9 81 1028.9 1028.6
09 19.09 н/о н/о +6.8 +2.7 75 1028.8 1028.5
10 19.09 н/о н/о +7.4 +2.7 72 1029.0 1028.7
11 19.09 н/о н/о +8.0 +3.3 72 1028.9 1028.6
12 19.09 30 км 10/1 1500 м
[Cu hum As op]
+8.8 +2.6 65 1028.7 1028.4
13 19.09 н/о н/о +9.0 +3.8 70 1028.3 1028.0
14 19.09 н/о н/о +9.3 +3.9 69 1027.9 1027.6 0.1
15 19.09 н/о н/о +8.9 +4.5 74 1027.6 1027.3
16 19.09 н/о н/о +8.7 +5.3 79 1027.5 1027.2
17 19.09 н/о н/о +8.1 +6.1 87 1027.6 1027.3 0.1
18 19.09 5000 м слаб. дождь 10/10 300 м
[Frnb]
+7.8 +5.8 87 1027.3 1027.0 +3.0 +9.4 0.2
19 19.09 н/о н/о +7.4 +5.7 89 1027.2 1026.9 0.2
20 19.09 н/о н/о +7.3 +6.3 93 1026.9 1026.6 0.4
21 19.09 н/о н/о +7.2 +6.2 93 1026.7 1026.4 0.3
22 19.09 н/о н/о +7.1 +6.2 94 1026.8 1026.5 0.3
23 19.09 н/о н/о +7.1 +6.2 94 1026.6 1026.3 0.1
00 20.09 н/о н/о +7.1 +6.2 94 1026.4 1026.1 0.2
01 20.09 н/о н/о +7.2 +6.3 94 1026.0 1025.7 0.2
02 20.09 н/о н/о +7.2 +6.3 94 1025.8 1025.5
03 20.09 10 км {туман} 10/10 1500 м
[St]
+7.4 +6.5 94 1025.8 1025.5
04 20.09 н/о н/о +7.4 +6.5 94 1025.6 1025.3 0.1
05 20.09 н/о н/о +7.5 +6.6 94 1025.4 1025.1 0.1
06 20.09 3000 м слаб. морось {туман} 10/10 100 м
[St]
+7.7 +6.8 94 1025.2 1024.9 +7.1 +7.8 2
07 20.09 н/о н/о +8.0 +7.1 94 1025.3 1025.0 0.1
08 20.09 н/о н/о +8.4 +7.3 93 1025.4 1025.1 0.1
09 20.09 н/о н/о +9.0 +7.8 92 1025.6 1025.3
10 20.09 н/о н/о +9.9 +8.0 88 1025.2 1024.9
11 20.09 н/о н/о +10.5 +8.6 88 1025.0 1024.7
12 20.09 4000 м слаб. морось 10/5 100 м
[St As op]
+10.6 +8.5 87 1024.8 1024.5
13 20.09 н/о н/о +11.1 +9.2 88 1024.8 1024.5
14 20.09 н/о н/о +11.4 +9.3 87 1024.8 1024.5
15 20.09 н/о н/о +12.0 +9.4 84 1024.5 1024.2
16 20.09 н/о н/о +12.2 +9.6 84 1024.2 1023.9
17 20.09 н/о н/о +12.6 +9.4 81 1024.2 1023.9
18 20.09 20 км 5/3 600 м
[Sc Cs]
+11.5 +9.4 87 1024.3 1024.0 +7.7 +12.6 0.2
19 20.09 н/о н/о +9.6 +8.4 92 1024.2 1023.9
20 20.09 н/о н/о +8.8 +7.7 93 1024.2 1023.9
21 20.09 н/о н/о +8.0 +6.9 93 1024.1 1023.8
22 20.09 н/о н/о +7.4 +6.5 94 1024.0 1023.7
23 20.09 н/о н/о +6.9 +6.0 94 1023.8 1023.5
00 21.09 н/о н/о +6.5 +5.6 94 1023.4 1023.1
01 21.09 н/о н/о +6.0 +5.1 94 1023.0 1022.7
02 21.09 н/о н/о +5.9 +5.2 95 1023.0 1022.7
03 21.09 55 км ясно +5.5 +4.8 95 1023.1 1022.8
04 21.09 н/о н/о +5.4 +4.7 95 1023.2 1022.9
05 21.09 н/о н/о +4.8 +4.1 95 1023.3 1023.0
06 21.09 >70 км ясно +4.9 +4.2 95 1023.0 1022.7 +4.7 +11.5
07 21.09 н/о н/о +5.1 +4.4 95 1022.7 1022.4
08 21.09 н/о н/о +6.8 +6.2 96 1022.4 1022.1
09 21.09 н/о н/о +8.1 +6.7 91 1022.2 1021.9
10 21.09 н/о н/о +10.5 +7.2 80 1021.7 1021.4
11 21.09 н/о н/о +12.2 +7.9 75 1021.0 1020.7
12 21.09 >70 км ясно +13.7 +7.7 67 1020.7 1020.4
13 21.09 н/о н/о +15.7 +8.0 60 1020.1 1019.8
14 21.09 н/о н/о +16.2 +8.9 62 1019.4 1019.1
15 21.09 н/о н/о +15.2 +9.1 67 1018.8 1018.5
16 21.09 н/о н/о +16.2 +8.2 59 1018.3 1018.0
17 21.09 н/о н/о +13.3 +9.6 78 1017.9 1017.6
18 21.09 >70 км ясно +12.0 +10.1 88 1017.9 1017.6 +4.8 +17.2
19 21.09 н/о н/о +10.9 +9.3 90 1018.1 1017.8
20 21.09 н/о н/о +10.3 +9.1 92 1017.9 1017.6
21 21.09 н/о н/о +9.3 +8.1 92 1017.6 1017.3
22 21.09 н/о н/о +8.9 +7.8 93 1017.4 1017.1
23 21.09 н/о н/о +8.4 +7.5 94 1016.9 1016.6
00 22.09 н/о н/о +8.0 +7.1 94 1016.7 1016.4
01 22.09 н/о н/о +7.6 +6.7 94 1016.4 1016.1
02 22.09 н/о н/о +7.4 +6.5 94 1015.9 1015.6
03 22.09 >70 км ясно +7.0 +6.3 95 1015.8 1015.5
04 22.09 н/о н/о +6.9 +6.0 94 1015.2 1014.9
05 22.09 н/о н/о +6.5 +5.6 94 1014.8 1014.5
06 22.09 >70 км ясно +6.2 +5.5 95 1014.8 1014.5 +6.0 +12.0
07 22.09 н/о н/о +6.5 +5.6 94 1014.7 1014.4
08 22.09 н/о н/о +8.9 +8.0 94 1014.4 1014.1
09 22.09 н/о н/о +12.1 +7.4 73 1013.9 1013.6
10 22.09 н/о н/о +12.4 +8.5 77 1013.5 1013.2
11 22.09 н/о н/о +14.2 +8.2 67 1013.0 1012.7
12 22.09 >70 км 1/0
[]
+15.2 +9.1 67 1012.5 1012.2
13 22.09 н/о н/о +16.8 +6.3 50 1012.1 1011.8

 

Местоположение метеостанции Сауда (Норвегия): широта 59.65 долгота 6.35 высота над уровнем моря 5 м.

В архиве по умолчанию представлена погода в Сауде за последнюю неделю. Архивные данные за месяц целиком и за предыдущие месяцы, начиная с января 2011 года, Вы можете получить, выбрав интересующий диапазон дат из раскрывающегося списка и нажав кнопку "Ввод!".


*Определитесь, кто Вы:
робот инопланетянин человек

Внимание! Время в таблицах - всемирное. Для получения местного времени необходимо прибавить поправку, которая равна 1 ч.

Смотрите также архив погоды в соседних городах и на ближайших метеорологических станциях:

Погода в Недре Ватс (Норвегия) (40 км)
Погода в Бляшу (Норвегия) (47 км)
Погода в Хаукелисетере (Норвегия) (51 км)
Погода в Фистере (Норвегия) (56 км)
Погода в Ховдене (Норвегия) (58 км)
Погода в Вагсли (Норвегия) (59 км)
Погода на Лярватне (Норвегия) (68 км)
Погода в Аэропорту Haugesund (Норвегия) (73 км)
Погода в Роваере (Норвегия) (75 км)
Погода в Эустеволле (Норвегия) (76 км)

Пояснения к столбцам:

Ветер - указаны скорость ветра в м/с - средняя за 10 мин, порывы в срок и между сроками (в фигурных скобках) и направление, откуда дует ветер: С - северный, СВ - северо-восточный, В - восточный, ЮВ - юго-восточный, Ю - южный, ЮЗ - юго-западный, З - западный, СЗ - северо-западный.
Видимость - горизонтальная дальность видимости в метрах или километрах. При видимости от 1 до 10 км при отсутствии осадков обычно наблюдается дымка, при ухудшении видимости до 1 км и менее - туман. В сухую погоду видимость может ухудшаться дымом, пылью или мглою.
Явления - указаны атмосферные явления, наблюдавшиеся в срок или в последний час перед сроком; фигурными скобками обозначены явления, наблюдавшиеся между сроками (за 1-3 часа до срока); квадратными скобками обозначены град или гололедные отложения с указанием их диаметра в мм.
Облачность - указаны через наклонную черту общая и нижняя облачность в баллах и высота нижней границы облаков в метрах; квадратными скобками обозначены формы облаков: Ci - перистые, Cs - перисто-слоистые, Cc - перисто-кучевые, Ac - высококучевые, As - высокослоистые, Sc - слоисто-кучевые, Ns - слоисто-дождевые, Cu - кучевые, Cb - кучево-дождевые. Подробнее классификацию облаков см. в Атласе облаков (PDF).
T - Температура воздуха - температура, измеренная на высоте 2 м над землей.
Td - Температура точки росы - температура, при понижении до которой содержащийся в воздухе водяной пар достигнет насыщения.
f - Относительная влажность воздуха - влажноcть воздуха, измеренная на высоте 2 м над землей.
Te - Эффективная температура - температура, которую ощущает одетый по сезону человек в тени. Характеристика душности погоды. При расчете учитывается влияние влажности воздуха и скорости ветра на теплоощущения человека.
Tes - Эффективная температура на солнце - температура, которую ощущает человек, с поправкой на солнечный нагрев. Характеристика знойности погоды. Зависит от высоты солнца над горизонтом, облачности и скорости ветра. Ночью, в пасмурную погоду, а также при ветре 12 м/с и более поправка равна нулю.
P - Атмосферное давление - приведенное к уровню моря атмосферное давление.
Po - Атмосферное давление - измеренное на уровне метеостанции атмосферное давление.
Tmin - Минимальная температура - минимум температуры воздуха на высоте 2 м над землей.
Tmax - Максимальная температура - максимум температуры воздуха на высоте 2 м над землей.
R - Количество осадков - Количество выпавших осадков за период времени, мм. При наведении курсора мыши на число - период времени, за который выпало указанное количество осадков.
R24 - Количество осадков - Количество выпавших осадков за 24 часа, мм.
S - Снежный покров - Высота снежного покрова, см. При наведении курсора мыши на число - состояние снежного покрова и степень покрытия местности в баллах.